Time,TemperatureF,DewpointF,PressureIn,WindDirection,WindDirectionDegrees,WindSpeedMPH,WindSpeedGustMPH,Humidity,HourlyPrecipIn,Conditions,Clouds,dailyrainin,SoftwareType,DateUTC
2013-09-30 00:01:00,54.1,51.2,30.06,North,355,0.0,0.0,90,0.00,,,0.00,Wunderground PWS Mod,2013-09-30 04:01:00,
2013-09-30 00:02:00,54.2,51.3,30.06,North,355,0.0,0.0,90,0.00,,,0.00,Wunderground PWS Mod,2013-09-30 04:02:00,
2013-09-30 00:03:00,54.1,51.5,30.06,North,355,0.0,0.0,91,0.00,,,0.00,Wunderground PWS Mod,2013-09-30 04:03:00,
2013-09-30 00:05:00,54.1,51.5,30.06,North,355,0.0,0.0,91,0.00,,,0.00,Wunderground PWS Mod,2013-09-30 04:05:00,
2013-09-30 00:07:00,53.8,51.2,30.06,NNW,338,0.0,2.0,91,0.00,,,0.00,Wunderground PWS Mod,2013-09-30 04:07:00,
2013-09-30 00:11:00,54.1,51.8,30.06,North,355,0.0,2.0,92,0.00,,,0.00,Wunderground PWS Mod,2013-09-30 04:11:00,
2013-09-30 00:16:00,54.1,51.8,30.07,North,355,0.0,2.0,92,0.00,,,0.00,Wunderground PWS Mod,2013-09-30 04:16:00,
2013-09-30 00:22:00,53.9,51.6,30.06,North,360,0.0,2.0,92,0.00,,,0.00,Wunderground PWS Mod,2013-09-30 04:22:00,
2013-09-30 00:27:00,53.7,51.4,30.06,NNW,342,0.0,2.0,92,0.00,,,0.00,Wunderground PWS Mod,2013-09-30 04:27:00,
2013-09-30 00:33:00,53.8,51.2,30.06,NNW,344,0.0,2.0,91,0.00,,,0.00,Wunderground PWS Mod,2013-09-30 04:33:00,
2013-09-30 00:38:00,54.0,51.7,30.06,NNW,345,0.0,2.0,92,0.00,,,0.00,Wunderground PWS Mod,2013-09-30 04:38:00,
2013-09-30 00:43:00,54.0,51.7,30.06,NNW,345,0.0,2.0,92,0.00,,,0.00,Wunderground PWS Mod,2013-09-30 04:43:00,
2013-09-30 00:48:00,54.0,51.7,30.06,NNW,345,0.0,2.0,92,0.00,,,0.00,Wunderground PWS Mod,2013-09-30 04:48:00,
2013-09-30 00:55:00,53.9,51.9,30.06,NNW,346,0.0,2.0,93,0.00,,,0.00,Wunderground PWS Mod,2013-09-30 04:55:00,
2013-09-30 01:00:00,53.8,51.5,30.06,North,355,0.0,2.0,92,0.00,,,0.00,Wunderground PWS Mod,2013-09-30 05:00:00,
2013-09-30 01:05:00,53.9,51.6,30.06,North,355,1.0,2.0,92,0.00,,,0.00,Wunderground PWS Mod,2013-09-30 05:05:00,
2013-09-30 01:11:00,53.9,51.9,30.06,North,11,1.0,2.0,93,0.00,,,0.00,Wunderground PWS Mod,2013-09-30 05:11:00,
2013-09-30 01:16:00,53.7,51.7,30.05,North,10,0.0,2.0,93,0.00,,,0.00,Wunderground PWS Mod,2013-09-30 05:16:00,
2013-09-30 01:21:00,53.6,51.6,30.05,NE,35,0.0,2.0,93,0.00,,,0.00,Wunderground PWS Mod,2013-09-30 05:21:00,
2013-09-30 01:26:00,53.5,51.5,30.05,NE,35,0.0,2.0,93,0.00,,,0.00,Wunderground PWS Mod,2013-09-30 05:26:00,
2013-09-30 01:32:00,53.3,51.6,30.06,North,5,0.0,2.0,94,0.00,,,0.00,Wunderground PWS Mod,2013-09-30 05:32:00,
2013-09-30 01:37:00,53.2,51.2,30.06,North,5,0.0,2.0,93,0.00,,,0.00,Wunderground PWS Mod,2013-09-30 05:37:00,
2013-09-30 01:43:00,53.0,51.3,30.06,North,5,0.0,2.0,94,0.00,,,0.00,Wunderground PWS Mod,2013-09-30 05:43:00,
2013-09-30 01:48:00,52.9,51.2,30.06,North,5,0.0,2.0,94,0.00,,,0.00,Wunderground PWS Mod,2013-09-30 05:48:00,
2013-09-30 01:55:00,52.9,51.2,30.06,North,5,0.0,2.0,94,0.00,,,0.00,Wunderground PWS Mod,2013-09-30 05:55:00,
2013-09-30 02:00:00,52.8,51.1,30.05,NNE,15,0.0,2.0,94,0.00,,,0.00,Wunderground PWS Mod,2013-09-30 06:00:00,
2013-09-30 02:05:00,52.8,51.4,30.05,NNE,13,0.0,2.0,95,0.00,,,0.00,Wunderground PWS Mod,2013-09-30 06:05:00,
2013-09-30 02:11:00,52.7,51.0,30.05,NNE,13,0.0,2.0,94,0.00,,,0.00,Wunderground PWS Mod,2013-09-30 06:11:00,
2013-09-30 02:16:00,52.6,51.2,30.05,NNE,13,0.0,2.0,95,0.00,,,0.00,Wunderground PWS Mod,2013-09-30 06:16:00,
2013-09-30 02:22:00,52.5,51.1,30.05,NNE,13,0.0,2.0,95,0.00,,,0.00,Wunderground PWS Mod,2013-09-30 06:22:00,
2013-09-30 02:27:00,52.4,51.0,30.05,NNE,13,0.0,2.0,95,0.00,,,0.00,Wunderground PWS Mod,2013-09-30 06:27:00,
2013-09-30 02:33:00,52.3,50.9,30.04,NNE,13,0.0,2.0,95,0.00,,,0.00,Wunderground PWS Mod,2013-09-30 06:33:00,
2013-09-30 02:38:00,52.2,50.8,30.04,NNE,13,0.0,2.0,95,0.00,,,0.00,Wunderground PWS Mod,2013-09-30 06:38:00,
2013-09-30 02:43:00,52.1,50.7,30.04,NNE,15,0.0,2.0,95,0.00,,,0.00,Wunderground PWS Mod,2013-09-30 06:43:00,
2013-09-30 02:48:00,52.0,50.6,30.04,NNE,15,0.0,2.0,95,0.00,,,0.00,Wunderground PWS Mod,2013-09-30 06:48:00,
2013-09-30 02:55:00,51.8,50.4,30.04,NNE,15,0.0,2.0,95,0.00,,,0.00,Wunderground PWS Mod,2013-09-30 06:55:00,
2013-09-30 03:00:00,51.8,50.4,30.03,NNE,15,0.0,2.0,95,0.00,,,0.00,Wunderground PWS Mod,2013-09-30 07:00:00,
2013-09-30 03:05:00,51.7,50.6,30.03,NNE,15,0.0,2.0,96,0.00,,,0.00,Wunderground PWS Mod,2013-09-30 07:05:00,
2013-09-30 03:10:00,51.6,50.5,30.03,NNE,15,0.0,2.0,96,0.00,,,0.00,Wunderground PWS Mod,2013-09-30 07:10:00,
2013-09-30 03:15:00,51.5,50.4,30.03,North,5,0.0,2.0,96,0.00,,,0.00,Wunderground PWS Mod,2013-09-30 07:15:00,
2013-09-30 03:20:00,51.5,50.4,30.03,NNE,13,0.0,2.0,96,0.00,,,0.00,Wunderground PWS Mod,2013-09-30 07:20:00,
2013-09-30 03:25:00,51.4,50.3,30.03,NNE,13,0.0,2.0,96,0.00,,,0.00,Wunderground PWS Mod,2013-09-30 07:25:00,
2013-09-30 03:31:00,51.3,50.2,30.03,North,355,0.0,2.0,96,0.00,,,0.00,Wunderground PWS Mod,2013-09-30 07:31:00,
2013-09-30 03:36:00,51.3,50.2,30.03,North,355,0.0,2.0,96,0.00,,,0.00,Wunderground PWS Mod,2013-09-30 07:36:00,
2013-09-30 03:42:00,51.2,50.1,30.03,North,5,0.0,2.0,96,0.00,,,0.00,Wunderground PWS Mod,2013-09-30 07:42:00,
2013-09-30 03:47:00,51.2,50.1,30.03,NNE,13,0.0,2.0,96,0.00,,,0.00,Wunderground PWS Mod,2013-09-30 07:47:00,
2013-09-30 03:52:00,51.2,50.1,30.04,NNE,24,0.0,2.0,96,0.00,,,0.00,Wunderground PWS Mod,2013-09-30 07:52:00,
2013-09-30 03:57:00,51.4,50.6,30.04,NNE,15,0.0,2.0,97,0.00,,,0.00,Wunderground PWS Mod,2013-09-30 07:57:00,
2013-09-30 04:03:00,51.3,50.5,30.04,NNE,19,0.0,2.0,97,0.00,,,0.00,Wunderground PWS Mod,2013-09-30 08:03:00,
2013-09-30 04:08:00,51.4,50.6,30.04,NNE,19,0.0,4.0,97,0.00,,,0.00,Wunderground PWS Mod,2013-09-30 08:08:00,
2013-09-30 04:14:00,51.3,50.5,30.04,North,0,0.0,4.0,97,0.00,,,0.00,Wunderground PWS Mod,2013-09-30 08:14:00,
2013-09-30 04:15:00,51.3,50.5,30.04,NNE,17,0.0,4.0,97,0.00,,,0.00,Wunderground PWS Mod,2013-09-30 08:15:00,
2013-09-30 04:20:00,51.3,50.5,30.04,NNE,17,0.0,4.0,97,0.00,,,0.00,Wunderground PWS Mod,2013-09-30 08:20:00,
2013-09-30 04:25:00,51.3,50.5,30.03,NNE,26,0.0,4.0,97,0.00,,,0.00,Wunderground PWS Mod,2013-09-30 08:25:00,
2013-09-30 04:31:00,51.3,50.5,30.03,NNE,29,0.0,4.0,97,0.00,,,0.00,Wunderground PWS Mod,2013-09-30 08:31:00,
2013-09-30 04:36:00,51.2,50.4,30.03,North,355,0.0,4.0,97,0.00,,,0.00,Wunderground PWS Mod,2013-09-30 08:36:00,
2013-09-30 04:42:00,51.2,50.4,30.03,North,355,0.0,4.0,97,0.00,,,0.00,Wunderground PWS Mod,2013-09-30 08:42:00,
2013-09-30 04:47:00,51.3,50.5,30.03,North,9,0.0,4.0,97,0.00,,,0.00,Wunderground PWS Mod,2013-09-30 08:47:00,
2013-09-30 04:53:00,51.2,50.4,30.03,NNE,21,0.0,4.0,97,0.00,,,0.00,Wunderground PWS Mod,2013-09-30 08:53:00,
2013-09-30 04:58:00,51.3,50.5,30.03,NNE,21,0.0,4.0,97,0.00,,,0.00,Wunderground PWS Mod,2013-09-30 08:58:00,
2013-09-30 05:03:00,51.2,50.4,30.03,NNE,21,0.0,4.0,97,0.00,,,0.00,Wunderground PWS Mod,2013-09-30 09:03:00,
2013-09-30 05:09:00,51.2,50.4,30.04,NNE,21,0.0,4.0,97,0.00,,,0.00,Wunderground PWS Mod,2013-09-30 09:09:00,
2013-09-30 05:15:00,51.0,49.9,30.04,NNE,21,0.0,4.0,96,0.00,,,0.00,Wunderground PWS Mod,2013-09-30 09:15:00,
2013-09-30 05:20:00,51.0,49.9,30.04,NNE,21,0.0,4.0,96,0.00,,,0.00,Wunderground PWS Mod,2013-09-30 09:20:00,
2013-09-30 05:25:00,50.9,49.8,30.04,NNE,21,0.0,4.0,96,0.00,,,0.00,Wunderground PWS Mod,2013-09-30 09:25:00,
2013-09-30 05:31:00,50.8,49.7,30.04,NNE,21,0.0,4.0,96,0.00,,,0.00,Wunderground PWS Mod,2013-09-30 09:31:00,
2013-09-30 05:36:00,50.6,49.5,30.04,North,9,0.0,4.0,96,0.00,,,0.00,Wunderground PWS Mod,2013-09-30 09:36:00,
2013-09-30 05:42:00,50.5,49.4,30.04,North,5,0.0,4.0,96,0.00,,,0.00,Wunderground PWS Mod,2013-09-30 09:42:00,
2013-09-30 05:48:00,50.3,49.2,30.04,NNW,348,0.0,4.0,96,0.00,,,0.00,Wunderground PWS Mod,2013-09-30 09:48:00,
2013-09-30 05:53:00,50.1,49.0,30.04,North,355,0.0,4.0,96,0.00,,,0.00,Wunderground PWS Mod,2013-09-30 09:53:00,
2013-09-30 05:58:00,50.1,49.0,30.04,North,355,0.0,4.0,96,0.00,,,0.00,Wunderground PWS Mod,2013-09-30 09:58:00,
2013-09-30 06:05:00,50.0,49.2,30.04,North,355,0.0,4.0,97,0.00,,,0.00,Wunderground PWS Mod,2013-09-30 10:05:00,
2013-09-30 06:10:00,49.9,49.1,30.04,NNE,30,0.0,4.0,97,0.00,,,0.00,Wunderground PWS Mod,2013-09-30 10:10:00,
2013-09-30 06:15:00,49.8,48.7,30.04,NNE,22,0.0,4.0,96,0.00,,,0.00,Wunderground PWS Mod,2013-09-30 10:15:00,
2013-09-30 06:21:00,49.7,48.9,30.03,NNE,21,0.0,4.0,97,0.00,,,0.00,Wunderground PWS Mod,2013-09-30 10:21:00,
2013-09-30 06:26:00,49.5,48.7,30.03,NNW,346,0.0,4.0,97,0.00,,,0.00,Wunderground PWS Mod,2013-09-30 10:26:00,
2013-09-30 06:32:00,49.5,48.7,30.02,NNE,13,0.0,4.0,97,0.00,,,0.00,Wunderground PWS Mod,2013-09-30 10:32:00,
2013-09-30 06:37:00,49.4,48.6,30.03,NNE,27,0.0,4.0,97,0.00,,,0.00,Wunderground PWS Mod,2013-09-30 10:37:00,
2013-09-30 06:42:00,49.3,48.5,30.03,NNE,27,0.0,4.0,97,0.00,,,0.00,Wunderground PWS Mod,2013-09-30 10:42:00,
2013-09-30 06:47:00,49.3,48.5,30.03,NNE,27,0.0,4.0,97,0.00,,,0.00,Wunderground PWS Mod,2013-09-30 10:47:00,
2013-09-30 06:53:00,49.2,48.4,30.04,NNE,27,0.0,4.0,97,0.00,,,0.00,Wunderground PWS Mod,2013-09-30 10:53:00,
2013-09-30 06:58:00,49.0,48.2,30.04,NNE,27,0.0,4.0,97,0.00,,,0.00,Wunderground PWS Mod,2013-09-30 10:58:00,
2013-09-30 07:03:00,49.0,48.2,30.04,NNE,27,0.0,4.0,97,0.00,,,0.00,Wunderground PWS Mod,2013-09-30 11:03:00,
2013-09-30 07:09:00,49.0,48.2,30.04,NNE,27,0.0,4.0,97,0.00,,,0.00,Wunderground PWS Mod,2013-09-30 11:09:00,
2013-09-30 07:15:00,49.0,48.2,30.04,NNE,27,0.0,4.0,97,0.00,,,0.00,Wunderground PWS Mod,2013-09-30 11:15:00,
2013-09-30 07:20:00,49.0,48.2,30.04,NNE,27,0.0,4.0,97,0.00,,,0.00,Wunderground PWS Mod,2013-09-30 11:20:00,
2013-09-30 07:25:00,48.9,48.1,30.03,NNE,27,0.0,4.0,97,0.00,,,0.00,Wunderground PWS Mod,2013-09-30 11:25:00,
2013-09-30 07:30:00,48.8,48.0,30.03,NNE,27,0.0,4.0,97,0.00,,,0.00,Wunderground PWS Mod,2013-09-30 11:30:00,
2013-09-30 07:36:00,48.9,48.1,30.03,NNW,348,0.0,4.0,97,0.00,,,0.00,Wunderground PWS Mod,2013-09-30 11:36:00,
2013-09-30 07:42:00,48.7,47.9,30.03,North,5,0.0,4.0,97,0.00,,,0.00,Wunderground PWS Mod,2013-09-30 11:42:00,
2013-09-30 07:47:00,48.6,47.8,30.03,North,11,0.0,4.0,97,0.00,,,0.00,Wunderground PWS Mod,2013-09-30 11:47:00,
2013-09-30 07:53:00,48.7,47.9,30.03,NNE,19,0.0,4.0,97,0.00,,,0.00,Wunderground PWS Mod,2013-09-30 11:53:00,
2013-09-30 07:58:00,48.7,47.9,30.04,NNE,21,0.0,4.0,97,0.00,,,0.00,Wunderground PWS Mod,2013-09-30 11:58:00,
2013-09-30 08:05:00,48.9,48.4,30.04,NNW,348,0.0,4.0,98,0.00,,,0.00,Wunderground PWS Mod,2013-09-30 12:05:00,
2013-09-30 08:10:00,49.0,48.2,30.03,North,5,0.0,4.0,97,0.00,,,0.00,Wunderground PWS Mod,2013-09-30 12:10:00,
2013-09-30 08:14:00,48.9,48.1,30.04,North,0,0.0,4.0,97,0.00,,,0.00,Wunderground PWS Mod,2013-09-30 12:14:00,
2013-09-30 08:15:00,49.0,48.5,30.03,NNW,348,1.0,4.0,98,0.00,,,0.00,Wunderground PWS Mod,2013-09-30 12:15:00,
2013-09-30 08:21:00,49.2,48.7,30.03,NNE,19,0.0,4.0,98,0.00,,,0.00,Wunderground PWS Mod,2013-09-30 12:21:00,
2013-09-30 08:26:00,49.2,48.7,30.04,NNE,23,0.0,4.0,98,0.00,,,0.00,Wunderground PWS Mod,2013-09-30 12:26:00,
2013-09-30 08:32:00,49.4,48.9,30.03,NNE,26,0.0,4.0,98,0.00,,,0.00,Wunderground PWS Mod,2013-09-30 12:32:00,
2013-09-30 08:37:00,49.5,49.0,30.04,NE,34,0.0,4.0,98,0.00,,,0.00,Wunderground PWS Mod,2013-09-30 12:37:00,
2013-09-30 08:42:00,49.5,49.0,30.04,North,355,0.0,4.0,98,0.00,,,0.00,Wunderground PWS Mod,2013-09-30 12:42:00,
2013-09-30 08:47:00,49.7,49.2,30.04,East,90,0.0,4.0,98,0.00,,,0.00,Wunderground PWS Mod,2013-09-30 12:47:00,
2013-09-30 08:52:00,49.9,49.4,30.04,East,84,0.0,4.0,98,0.00,,,0.00,Wunderground PWS Mod,2013-09-30 12:52:00,
2013-09-30 08:58:00,50.2,49.7,30.03,ENE,59,0.0,4.0,98,0.00,,,0.00,Wunderground PWS Mod,2013-09-30 12:58:00,
2013-09-30 09:03:00,50.5,50.0,30.03,North,355,0.0,4.0,98,0.00,,,0.00,Wunderground PWS Mod,2013-09-30 13:03:00,
2013-09-30 09:08:00,50.8,50.3,30.03,NNE,32,0.0,4.0,98,0.00,,,0.00,Wunderground PWS Mod,2013-09-30 13:08:00,
2013-09-30 09:15:00,51.0,50.2,30.03,ENE,71,0.0,4.0,97,0.00,,,0.00,Wunderground PWS Mod,2013-09-30 13:15:00,
2013-09-30 09:20:00,51.2,50.4,30.03,NNW,343,0.0,4.0,97,0.00,,,0.00,Wunderground PWS Mod,2013-09-30 13:20:00,
2013-09-30 09:25:00,51.6,50.5,30.03,NE,49,0.0,4.0,96,0.00,,,0.00,Wunderground PWS Mod,2013-09-30 13:25:00,
2013-09-30 09:31:00,51.9,50.8,30.04,NW,315,0.0,4.0,96,0.00,,,0.00,Wunderground PWS Mod,2013-09-30 13:31:00,
2013-09-30 09:36:00,52.3,51.2,30.04,SSE,153,0.0,4.0,96,0.00,,,0.00,Wunderground PWS Mod,2013-09-30 13:36:00,
2013-09-30 09:41:00,52.7,51.3,30.04,NNW,348,0.0,4.0,95,0.00,,,0.00,Wunderground PWS Mod,2013-09-30 13:41:00,
2013-09-30 09:46:00,53.2,51.5,30.04,NNE,17,0.0,4.0,94,0.00,,,0.00,Wunderground PWS Mod,2013-09-30 13:46:00,
2013-09-30 09:52:00,53.6,51.6,30.04,NNE,17,0.0,4.0,93,0.00,,,0.00,Wunderground PWS Mod,2013-09-30 13:52:00,
2013-09-30 09:57:00,54.0,52.0,30.04,NNE,21,0.0,4.0,93,0.00,,,0.00,Wunderground PWS Mod,2013-09-30 13:57:00,
2013-09-30 10:03:00,54.4,52.1,30.05,NNE,21,0.0,4.0,92,0.00,,,0.00,Wunderground PWS Mod,2013-09-30 14:03:00,
2013-09-30 10:08:00,54.8,52.5,30.04,ENE,64,0.0,4.0,92,0.00,,,0.00,Wunderground PWS Mod,2013-09-30 14:08:00,
2013-09-30 10:13:00,55.3,52.7,30.04,North,355,0.0,4.0,91,0.00,,,0.00,Wunderground PWS Mod,2013-09-30 14:13:00,
2013-09-30 10:18:00,55.5,52.3,30.04,North,9,1.0,4.0,89,0.00,,,0.00,Wunderground PWS Mod,2013-09-30 14:18:00,
2013-09-30 10:25:00,56.0,52.8,30.04,North,5,0.0,4.0,89,0.00,,,0.00,Wunderground PWS Mod,2013-09-30 14:25:00,
2013-09-30 10:30:00,56.6,53.4,30.04,NNE,17,0.0,4.0,89,0.00,,,0.00,Wunderground PWS Mod,2013-09-30 14:30:00,
2013-09-30 10:35:00,56.8,53.0,30.03,NNE,15,0.0,4.0,87,0.00,,,0.00,Wunderground PWS Mod,2013-09-30 14:35:00,
2013-09-30 10:41:00,56.7,52.9,30.03,NNW,348,0.0,4.0,87,0.00,,,0.00,Wunderground PWS Mod,2013-09-30 14:41:00,
2013-09-30 10:47:00,57.3,52.8,30.03,NNE,21,0.0,4.0,85,0.00,,,0.00,Wunderground PWS Mod,2013-09-30 14:47:00,
2013-09-30 10:53:00,57.9,52.8,30.02,North,11,0.0,4.0,83,0.00,,,0.00,Wunderground PWS Mod,2013-09-30 14:53:00,
2013-09-30 10:58:00,58.6,52.8,30.02,North,351,0.0,4.0,81,0.00,,,0.00,Wunderground PWS Mod,2013-09-30 14:58:00,
2013-09-30 11:03:00,58.9,53.1,30.02,NNE,14,1.0,4.0,81,0.00,,,0.00,Wunderground PWS Mod,2013-09-30 15:03:00,
2013-09-30 11:09:00,59.5,53.0,30.01,North,355,1.0,4.0,79,0.00,,,0.00,Wunderground PWS Mod,2013-09-30 15:09:00,
2013-09-30 11:15:00,60.3,53.8,30.02,North,355,0.0,4.0,79,0.00,,,0.00,Wunderground PWS Mod,2013-09-30 15:15:00,
2013-09-30 11:20:00,60.8,53.2,30.02,North,355,0.0,4.0,76,0.00,,,0.00,Wunderground PWS Mod,2013-09-30 15:20:00,
2013-09-30 11:25:00,61.4,53.8,30.02,East,92,0.0,4.0,76,0.00,,,0.00,Wunderground PWS Mod,2013-09-30 15:25:00,
2013-09-30 11:31:00,61.9,52.4,30.02,NNW,340,0.0,4.0,71,0.00,,,0.00,Wunderground PWS Mod,2013-09-30 15:31:00,
2013-09-30 11:36:00,62.3,53.2,30.01,NNW,348,1.0,4.0,72,0.00,,,0.00,Wunderground PWS Mod,2013-09-30 15:36:00,
2013-09-30 11:41:00,62.3,52.8,30.01,North,349,1.0,4.0,71,0.00,,,0.00,Wunderground PWS Mod,2013-09-30 15:41:00,
2013-09-30 11:46:00,62.8,53.6,30.01,NNE,26,1.0,4.0,72,0.00,,,0.00,Wunderground PWS Mod,2013-09-30 15:46:00,
2013-09-30 11:52:00,63.3,54.1,30.01,NW,313,0.0,4.0,72,0.00,,,0.00,Wunderground PWS Mod,2013-09-30 15:52:00,
2013-09-30 11:57:00,63.8,53.0,30.00,NNE,17,0.0,4.0,68,0.00,,,0.00,Wunderground PWS Mod,2013-09-30 15:57:00,
2013-09-30 12:02:00,64.1,52.5,30.00,NNW,342,0.0,4.0,66,0.00,,,0.00,Wunderground PWS Mod,2013-09-30 16:02:00,
2013-09-30 12:07:00,64.2,52.2,30.00,North,10,0.0,6.0,65,0.00,,,0.00,Wunderground PWS Mod,2013-09-30 16:07:00,
2013-09-30 12:13:00,64.6,52.6,29.99,North,355,0.0,6.0,65,0.00,,,0.00,Wunderground PWS Mod,2013-09-30 16:13:00,
2013-09-30 12:18:00,64.8,53.6,29.99,NE,38,0.0,6.0,67,0.00,,,0.00,Wunderground PWS Mod,2013-09-30 16:18:00,
2013-09-30 12:23:00,65.0,52.5,29.99,ENE,58,0.0,6.0,64,0.00,,,0.00,Wunderground PWS Mod,2013-09-30 16:23:00,
2013-09-30 12:29:00,65.3,52.8,29.99,East,85,0.0,6.0,64,0.00,,,0.00,Wunderground PWS Mod,2013-09-30 16:29:00,
2013-09-30 12:35:00,65.5,52.6,29.99,NNE,18,0.0,6.0,63,0.00,,,0.00,Wunderground PWS Mod,2013-09-30 16:35:00,
2013-09-30 12:40:00,65.6,53.1,29.99,North,355,0.0,6.0,64,0.00,,,0.00,Wunderground PWS Mod,2013-09-30 16:40:00,
2013-09-30 12:45:00,65.6,50.9,29.99,North,351,0.0,6.0,59,0.00,,,0.00,Wunderground PWS Mod,2013-09-30 16:45:00,
2013-09-30 12:51:00,65.8,51.5,29.99,North,9,0.0,6.0,60,0.00,,,0.00,Wunderground PWS Mod,2013-09-30 16:51:00,
2013-09-30 12:56:00,65.9,51.6,29.98,NE,47,1.0,6.0,60,0.00,,,0.00,Wunderground PWS Mod,2013-09-30 16:56:00,
2013-09-30 13:01:00,66.1,51.4,29.98,ENE,57,1.0,6.0,59,0.00,,,0.00,Wunderground PWS Mod,2013-09-30 17:01:00,
2013-09-30 13:06:00,66.7,51.5,29.98,North,350,0.0,6.0,58,0.00,,,0.00,Wunderground PWS Mod,2013-09-30 17:06:00,
2013-09-30 13:12:00,66.4,52.1,29.98,North,9,1.0,6.0,60,0.00,,,0.00,Wunderground PWS Mod,2013-09-30 17:12:00,
2013-09-30 13:17:00,66.7,53.7,29.98,SE,138,1.0,6.0,63,0.00,,,0.00,Wunderground PWS Mod,2013-09-30 17:17:00,
2013-09-30 13:22:00,66.7,53.3,29.98,NNE,30,0.0,6.0,62,0.00,,,0.00,Wunderground PWS Mod,2013-09-30 17:22:00,
2013-09-30 13:27:00,66.8,51.5,29.98,WSW,248,0.0,6.0,58,0.00,,,0.00,Wunderground PWS Mod,2013-09-30 17:27:00,
2013-09-30 13:33:00,66.9,51.2,29.97,WNW,300,0.0,6.0,57,0.00,,,0.00,Wunderground PWS Mod,2013-09-30 17:33:00,
2013-09-30 13:38:00,67.0,51.7,29.97,North,350,0.0,6.0,58,0.00,,,0.00,Wunderground PWS Mod,2013-09-30 17:38:00,
2013-09-30 13:43:00,67.1,52.3,29.97,ENE,77,0.0,6.0,59,0.00,,,0.00,Wunderground PWS Mod,2013-09-30 17:43:00,
2013-09-30 13:48:00,67.2,51.9,29.97,North,5,0.0,6.0,58,0.00,,,0.00,Wunderground PWS Mod,2013-09-30 17:48:00,
2013-09-30 13:55:00,67.5,52.2,29.97,North,5,0.0,6.0,58,0.00,,,0.00,Wunderground PWS Mod,2013-09-30 17:55:00,
2013-09-30 14:00:00,67.8,52.9,29.97,ENE,63,0.0,6.0,59,0.00,,,0.00,Wunderground PWS Mod,2013-09-30 18:00:00,
2013-09-30 14:05:00,68.0,52.7,29.97,NNE,28,0.0,6.0,58,0.00,,,0.00,Wunderground PWS Mod,2013-09-30 18:05:00,
2013-09-30 14:11:00,67.6,51.3,29.97,West,267,0.0,6.0,56,0.00,,,0.00,Wunderground PWS Mod,2013-09-30 18:11:00,
2013-09-30 14:16:00,67.4,50.7,29.97,SSW,200,0.0,6.0,55,0.00,,,0.00,Wunderground PWS Mod,2013-09-30 18:16:00,
2013-09-30 14:22:00,67.5,51.2,29.97,WNW,291,0.0,6.0,56,0.00,,,0.00,Wunderground PWS Mod,2013-09-30 18:22:00,
2013-09-30 14:27:00,67.5,52.7,29.97,ENE,59,0.0,6.0,59,0.00,,,0.00,Wunderground PWS Mod,2013-09-30 18:27:00,
2013-09-30 14:32:00,67.5,53.1,29.97,SE,130,0.0,6.0,60,0.00,,,0.00,Wunderground PWS Mod,2013-09-30 18:32:00,
2013-09-30 14:37:00,67.4,53.0,29.97,SE,137,0.0,6.0,60,0.00,,,0.00,Wunderground PWS Mod,2013-09-30 18:37:00,
2013-09-30 14:43:00,67.4,51.6,29.96,NNE,16,0.0,6.0,57,0.00,,,0.00,Wunderground PWS Mod,2013-09-30 18:43:00,
2013-09-30 14:48:00,67.2,51.9,29.96,North,355,0.0,6.0,58,0.00,,,0.00,Wunderground PWS Mod,2013-09-30 18:48:00,
2013-09-30 14:53:00,67.1,52.3,29.96,North,360,0.0,6.0,59,0.00,,,0.00,Wunderground PWS Mod,2013-09-30 18:53:00,
2013-09-30 14:58:00,67.0,51.3,29.96,North,355,0.0,6.0,57,0.00,,,0.00,Wunderground PWS Mod,2013-09-30 18:58:00,
2013-09-30 15:03:00,67.0,52.7,29.96,North,355,0.0,6.0,60,0.00,,,0.00,Wunderground PWS Mod,2013-09-30 19:03:00,
2013-09-30 15:08:00,67.0,52.2,29.96,North,355,0.0,6.0,59,0.00,,,0.00,Wunderground PWS Mod,2013-09-30 19:08:00,
2013-09-30 15:15:00,67.0,51.7,29.95,North,355,0.0,6.0,58,0.00,,,0.00,Wunderground PWS Mod,2013-09-30 19:15:00,
2013-09-30 15:20:00,67.1,53.6,29.95,North,355,0.0,6.0,62,0.00,,,0.00,Wunderground PWS Mod,2013-09-30 19:20:00,
2013-09-30 15:25:00,67.2,52.8,29.95,North,355,0.0,6.0,60,0.00,,,0.00,Wunderground PWS Mod,2013-09-30 19:25:00,
2013-09-30 15:30:00,67.2,51.9,29.95,North,355,0.0,6.0,58,0.00,,,0.00,Wunderground PWS Mod,2013-09-30 19:30:00,
2013-09-30 15:35:00,67.0,54.4,29.95,NNE,31,0.0,6.0,64,0.00,,,0.00,Wunderground PWS Mod,2013-09-30 19:35:00,
2013-09-30 15:41:00,66.6,54.0,29.95,North,11,0.0,6.0,64,0.00,,,0.00,Wunderground PWS Mod,2013-09-30 19:41:00,
2013-09-30 15:46:00,66.5,54.4,29.95,North,11,0.0,6.0,65,0.00,,,0.00,Wunderground PWS Mod,2013-09-30 19:46:00,
2013-09-30 15:51:00,66.6,52.3,29.94,North,11,0.0,6.0,60,0.00,,,0.00,Wunderground PWS Mod,2013-09-30 19:51:00,
2013-09-30 15:56:00,66.7,55.0,29.94,ENE,70,0.0,6.0,66,0.00,,,0.00,Wunderground PWS Mod,2013-09-30 19:56:00,
2013-09-30 16:02:00,66.7,55.4,29.94,SE,131,0.0,6.0,67,0.00,,,0.00,Wunderground PWS Mod,2013-09-30 20:02:00,
2013-09-30 16:07:00,66.5,55.6,29.94,SE,130,0.0,2.0,68,0.00,,,0.00,Wunderground PWS Mod,2013-09-30 20:07:00,
2013-09-30 16:13:00,66.2,55.3,29.94,South,183,0.0,2.0,68,0.00,,,0.00,Wunderground PWS Mod,2013-09-30 20:13:00,
2013-09-30 16:14:00,66.7,55.0,29.94,ESE,113,0.0,2.0,66,0.00,,,0.00,Wunderground PWS Mod,2013-09-30 20:14:00,
2013-09-30 16:18:00,66.1,55.2,29.94,South,182,0.0,2.0,68,0.00,,,0.00,Wunderground PWS Mod,2013-09-30 20:18:00,
2013-09-30 16:23:00,66.1,55.6,29.94,SE,138,0.0,2.0,69,0.00,,,0.00,Wunderground PWS Mod,2013-09-30 20:23:00,
2013-09-30 16:28:00,66.1,56.4,29.94,SE,138,0.0,2.0,71,0.00,,,0.00,Wunderground PWS Mod,2013-09-30 20:28:00,
2013-09-30 16:33:00,66.1,56.8,29.94,SE,138,0.0,2.0,72,0.00,,,0.00,Wunderground PWS Mod,2013-09-30 20:33:00,
2013-09-30 16:39:00,65.9,57.0,29.93,SE,138,0.0,2.0,73,0.00,,,0.00,Wunderground PWS Mod,2013-09-30 20:39:00,
2013-09-30 16:45:00,65.5,56.6,29.94,SE,140,0.0,2.0,73,0.00,,,0.00,Wunderground PWS Mod,2013-09-30 20:45:00,
2013-09-30 16:50:00,65.3,56.4,29.94,SE,140,0.0,2.0,73,0.00,,,0.00,Wunderground PWS Mod,2013-09-30 20:50:00,
2013-09-30 16:55:00,65.1,55.8,29.94,SE,137,0.0,2.0,72,0.00,,,0.00,Wunderground PWS Mod,2013-09-30 20:55:00,
2013-09-30 17:01:00,65.0,55.4,29.94,South,184,0.0,2.0,71,0.00,,,0.00,Wunderground PWS Mod,2013-09-30 21:01:00,
2013-09-30 17:06:00,65.0,55.0,29.94,SSW,194,0.0,2.0,70,0.00,,,0.00,Wunderground PWS Mod,2013-09-30 21:06:00,
2013-09-30 17:12:00,64.9,56.4,29.94,SSW,194,0.0,2.0,74,0.00,,,0.00,Wunderground PWS Mod,2013-09-30 21:12:00,
2013-09-30 17:18:00,64.5,55.7,29.94,SSE,161,0.0,2.0,73,0.00,,,0.00,Wunderground PWS Mod,2013-09-30 21:18:00,
2013-09-30 17:23:00,64.2,55.7,29.94,South,177,0.0,2.0,74,0.00,,,0.00,Wunderground PWS Mod,2013-09-30 21:23:00,
2013-09-30 17:28:00,63.8,56.1,29.94,South,177,0.0,2.0,76,0.00,,,0.00,Wunderground PWS Mod,2013-09-30 21:28:00,
2013-09-30 17:34:00,63.4,56.1,29.94,SE,142,0.0,2.0,77,0.00,,,0.00,Wunderground PWS Mod,2013-09-30 21:34:00,
2013-09-30 17:40:00,63.1,55.8,29.94,SE,128,0.0,2.0,77,0.00,,,0.00,Wunderground PWS Mod,2013-09-30 21:40:00,
2013-09-30 17:45:00,62.8,56.2,29.94,SE,128,0.0,2.0,79,0.00,,,0.00,Wunderground PWS Mod,2013-09-30 21:45:00,
2013-09-30 17:50:00,62.6,55.6,29.94,SE,128,0.0,2.0,78,0.00,,,0.00,Wunderground PWS Mod,2013-09-30 21:50:00,
2013-09-30 17:55:00,62.5,55.9,29.94,SE,128,0.0,2.0,79,0.00,,,0.00,Wunderground PWS Mod,2013-09-30 21:55:00,
2013-09-30 18:01:00,62.4,55.8,29.94,SE,128,0.0,2.0,79,0.00,,,0.00,Wunderground PWS Mod,2013-09-30 22:01:00,
2013-09-30 18:07:00,62.2,56.0,29.94,SE,128,0.0,2.0,80,0.00,,,0.00,Wunderground PWS Mod,2013-09-30 22:07:00,
2013-09-30 18:12:00,62.1,55.9,29.95,SE,128,0.0,2.0,80,0.00,,,0.00,Wunderground PWS Mod,2013-09-30 22:12:00,
2013-09-30 18:17:00,61.9,55.7,29.95,SE,128,0.0,2.0,80,0.00,,,0.00,Wunderground PWS Mod,2013-09-30 22:17:00,
2013-09-30 18:23:00,61.7,55.5,29.95,SE,128,0.0,2.0,80,0.00,,,0.00,Wunderground PWS Mod,2013-09-30 22:23:00,
2013-09-30 18:28:00,61.4,55.2,29.95,SE,128,0.0,2.0,80,0.00,,,0.00,Wunderground PWS Mod,2013-09-30 22:28:00,
2013-09-30 18:35:00,61.1,55.2,29.94,SE,128,0.0,2.0,81,0.00,,,0.00,Wunderground PWS Mod,2013-09-30 22:35:00,
2013-09-30 18:40:00,60.8,54.9,29.94,SSW,193,0.0,2.0,81,0.00,,,0.00,Wunderground PWS Mod,2013-09-30 22:40:00,
2013-09-30 18:45:00,60.5,55.0,29.94,SSW,193,0.0,2.0,82,0.00,,,0.00,Wunderground PWS Mod,2013-09-30 22:45:00,
2013-09-30 18:51:00,60.1,54.6,29.94,SSW,193,0.0,2.0,82,0.00,,,0.00,Wunderground PWS Mod,2013-09-30 22:51:00,
2013-09-30 18:56:00,59.8,54.6,29.95,SSW,193,0.0,2.0,83,0.00,,,0.00,Wunderground PWS Mod,2013-09-30 22:56:00,
2013-09-30 19:01:00,59.6,54.4,29.95,SSW,193,0.0,2.0,83,0.00,,,0.00,Wunderground PWS Mod,2013-09-30 23:01:00,
2013-09-30 19:06:00,59.3,54.1,29.95,SSW,193,0.0,2.0,83,0.00,,,0.00,Wunderground PWS Mod,2013-09-30 23:06:00,
2013-09-30 19:12:00,59.1,53.9,29.95,SSW,193,0.0,2.0,83,0.00,,,0.00,Wunderground PWS Mod,2013-09-30 23:12:00,
2013-09-30 19:17:00,59.0,53.8,29.94,SSW,193,0.0,2.0,83,0.00,,,0.00,Wunderground PWS Mod,2013-09-30 23:17:00,
2013-09-30 19:22:00,58.8,53.6,29.95,SSW,193,0.0,2.0,83,0.00,,,0.00,Wunderground PWS Mod,2013-09-30 23:22:00,
2013-09-30 19:28:00,58.7,53.9,29.95,SSW,193,0.0,2.0,84,0.00,,,0.00,Wunderground PWS Mod,2013-09-30 23:28:00,
2013-09-30 19:33:00,58.6,53.8,29.95,SSW,193,0.0,2.0,84,0.00,,,0.00,Wunderground PWS Mod,2013-09-30 23:33:00,
2013-09-30 19:38:00,58.5,53.7,29.95,SSW,193,0.0,2.0,84,0.00,,,0.00,Wunderground PWS Mod,2013-09-30 23:38:00,
2013-09-30 19:45:00,58.4,53.9,29.94,SSW,193,0.0,2.0,85,0.00,,,0.00,Wunderground PWS Mod,2013-09-30 23:45:00,
2013-09-30 19:50:00,58.3,53.8,29.95,SSW,193,0.0,2.0,85,0.00,,,0.00,Wunderground PWS Mod,2013-09-30 23:50:00,
2013-09-30 19:56:00,58.1,53.6,29.95,SSW,193,0.0,2.0,85,0.00,,,0.00,Wunderground PWS Mod,2013-09-30 23:56:00,
2013-09-30 20:01:00,58.0,53.5,29.95,SSW,193,0.0,2.0,85,0.00,,,0.00,Wunderground PWS Mod,2013-10-01 00:01:00,
2013-09-30 20:07:00,57.8,53.6,29.95,SSW,193,0.0,0.0,86,0.00,,,0.00,Wunderground PWS Mod,2013-10-01 00:07:00,
2013-09-30 20:12:00,57.7,53.5,29.95,SSW,193,0.0,0.0,86,0.00,,,0.00,Wunderground PWS Mod,2013-10-01 00:12:00,
2013-09-30 20:14:00,57.9,53.4,29.94,N/A,-737280,0.0,0.0,85,0.00,,,0.00,Wunderground PWS Mod,2013-10-01 00:14:00,
2013-09-30 20:18:00,57.5,53.3,29.95,SSW,193,0.0,0.0,86,0.00,,,0.00,Wunderground PWS Mod,2013-10-01 00:18:00,
2013-09-30 20:23:00,57.4,53.6,29.95,SSW,193,0.0,0.0,87,0.00,,,0.00,Wunderground PWS Mod,2013-10-01 00:23:00,
2013-09-30 20:28:00,57.3,53.5,29.95,SSW,193,0.0,0.0,87,0.00,,,0.00,Wunderground PWS Mod,2013-10-01 00:28:00,
2013-09-30 20:35:00,57.2,53.7,29.95,SSW,193,0.0,0.0,88,0.00,,,0.00,Wunderground PWS Mod,2013-10-01 00:35:00,
2013-09-30 20:40:00,57.0,53.5,29.95,SSW,193,0.0,0.0,88,0.00,,,0.00,Wunderground PWS Mod,2013-10-01 00:40:00,
2013-09-30 20:45:00,56.8,53.6,29.95,SSW,193,0.0,0.0,89,0.00,,,0.00,Wunderground PWS Mod,2013-10-01 00:45:00,
2013-09-30 20:51:00,56.5,53.0,29.95,SSW,193,0.0,0.0,88,0.00,,,0.00,Wunderground PWS Mod,2013-10-01 00:51:00,
2013-09-30 20:56:00,56.4,52.9,29.95,SSW,193,0.0,0.0,88,0.00,,,0.00,Wunderground PWS Mod,2013-10-01 00:56:00,
2013-09-30 21:02:00,56.3,53.1,29.95,SSW,193,0.0,0.0,89,0.00,,,0.00,Wunderground PWS Mod,2013-10-01 01:02:00,
2013-09-30 21:07:00,56.2,53.0,29.96,SSW,193,0.0,0.0,89,0.00,,,0.00,Wunderground PWS Mod,2013-10-01 01:07:00,
2013-09-30 21:13:00,56.2,53.0,29.95,SSW,193,0.0,0.0,89,0.00,,,0.00,Wunderground PWS Mod,2013-10-01 01:13:00,
2013-09-30 21:18:00,56.1,52.9,29.95,SSW,193,0.0,0.0,89,0.00,,,0.00,Wunderground PWS Mod,2013-10-01 01:18:00,
2013-09-30 21:23:00,56.1,52.9,29.95,SSW,193,0.0,0.0,89,0.00,,,0.00,Wunderground PWS Mod,2013-10-01 01:23:00,
2013-09-30 21:28:00,56.0,52.8,29.95,SSW,193,0.0,0.0,89,0.00,,,0.00,Wunderground PWS Mod,2013-10-01 01:28:00,
2013-09-30 21:35:00,55.9,53.0,29.95,SSW,193,0.0,0.0,90,0.00,,,0.00,Wunderground PWS Mod,2013-10-01 01:35:00,
2013-09-30 21:40:00,55.8,52.9,29.95,SSW,193,0.0,0.0,90,0.00,,,0.00,Wunderground PWS Mod,2013-10-01 01:40:00,
2013-09-30 21:45:00,55.7,52.8,29.95,SSW,193,0.0,0.0,90,0.00,,,0.00,Wunderground PWS Mod,2013-10-01 01:45:00,
2013-09-30 21:50:00,55.6,53.0,29.96,SSW,193,0.0,0.0,91,0.00,,,0.00,Wunderground PWS Mod,2013-10-01 01:50:00,
2013-09-30 21:56:00,55.5,52.9,29.96,SSW,193,0.0,0.0,91,0.00,,,0.00,Wunderground PWS Mod,2013-10-01 01:56:00,
2013-09-30 22:01:00,55.4,52.8,29.96,SSW,193,0.0,0.0,91,0.00,,,0.00,Wunderground PWS Mod,2013-10-01 02:01:00,
2013-09-30 22:06:00,55.3,52.7,29.95,SSW,193,0.0,0.0,91,0.00,,,0.00,Wunderground PWS Mod,2013-10-01 02:06:00,
2013-09-30 22:12:00,55.1,52.5,29.95,SSW,193,0.0,0.0,91,0.00,,,0.00,Wunderground PWS Mod,2013-10-01 02:12:00,
2013-09-30 22:17:00,55.1,52.5,29.96,SSW,193,0.0,0.0,91,0.00,,,0.00,Wunderground PWS Mod,2013-10-01 02:17:00,
2013-09-30 22:23:00,55.0,52.7,29.95,SSW,193,0.0,0.0,92,0.00,,,0.00,Wunderground PWS Mod,2013-10-01 02:23:00,
2013-09-30 22:28:00,54.9,52.6,29.95,SSW,193,0.0,0.0,92,0.00,,,0.00,Wunderground PWS Mod,2013-10-01 02:28:00,
2013-09-30 22:33:00,54.9,52.9,29.95,SSW,193,0.0,0.0,93,0.00,,,0.00,Wunderground PWS Mod,2013-10-01 02:33:00,
2013-09-30 22:38:00,54.9,52.9,29.95,SSW,193,0.0,0.0,93,0.00,,,0.00,Wunderground PWS Mod,2013-10-01 02:38:00,
2013-09-30 22:45:00,54.9,52.9,29.95,SSW,193,0.0,0.0,93,0.00,,,0.00,Wunderground PWS Mod,2013-10-01 02:45:00,
2013-09-30 22:50:00,54.8,52.8,29.95,SSW,193,0.0,0.0,93,0.00,,,0.00,Wunderground PWS Mod,2013-10-01 02:50:00,
2013-09-30 22:56:00,54.8,52.8,29.95,SSW,193,0.0,0.0,93,0.00,,,0.00,Wunderground PWS Mod,2013-10-01 02:56:00,
2013-09-30 23:01:00,54.7,52.7,29.95,SSW,193,0.0,0.0,93,0.00,,,0.00,Wunderground PWS Mod,2013-10-01 03:01:00,
2013-09-30 23:06:00,54.5,52.5,29.95,SSW,193,0.0,0.0,93,0.00,,,0.00,Wunderground PWS Mod,2013-10-01 03:06:00,
2013-09-30 23:12:00,54.2,51.9,29.95,SSW,193,0.0,0.0,92,0.00,,,0.00,Wunderground PWS Mod,2013-10-01 03:12:00,
2013-09-30 23:17:00,54.1,52.1,29.94,SSW,193,0.0,0.0,93,0.00,,,0.00,Wunderground PWS Mod,2013-10-01 03:17:00,
2013-09-30 23:23:00,54.1,52.1,29.94,SSW,193,0.0,0.0,93,0.00,,,0.00,Wunderground PWS Mod,2013-10-01 03:23:00,
2013-09-30 23:28:00,54.1,52.1,29.95,SSW,193,0.0,0.0,93,0.00,,,0.00,Wunderground PWS Mod,2013-10-01 03:28:00,
2013-09-30 23:33:00,54.0,52.0,29.95,SSW,193,0.0,0.0,93,0.00,,,0.00,Wunderground PWS Mod,2013-10-01 03:33:00,
2013-09-30 23:38:00,53.9,51.9,29.94,SSW,193,0.0,0.0,93,0.00,,,0.00,Wunderground PWS Mod,2013-10-01 03:38:00,
2013-09-30 23:45:00,53.8,51.8,29.94,SSW,193,0.0,0.0,93,0.00,,,0.00,Wunderground PWS Mod,2013-10-01 03:45:00,
2013-09-30 23:50:00,53.8,52.1,29.94,SSW,193,0.0,0.0,94,0.00,,,0.00,Wunderground PWS Mod,2013-10-01 03:50:00,
2013-09-30 23:56:00,53.9,52.2,29.94,SSW,193,0.0,0.0,94,0.00,,,0.00,Wunderground PWS Mod,2013-10-01 03:56:00,